Rochelle, IL

10:29 AM CST on December 07, 2016 (GMT -0600)
Rochelle

Weather History for KRPJ - March, 2015

Change the Weather History Date:

Saturday, March 21, 2015

  Actual Average (KRFD) Record (KRFD)
Temperature  
Mean Temperature 42 °F 39 °F  
Max Temperature 54 °F 49 °F 84 °F (2012)
Min Temperature 31 °F 29 °F 6 °F (1965)
Degree Days  
Heating Degree Days 22 26  
Month to date heating degree days 628  
Since 1 July heating degree days 5630  
Cooling Degree Days 0 0  
Month to date cooling degree days 0  
Year to date cooling degree days 0  
Moisture  
Dew Point 31 °F    
Average Humidity 71    
Maximum Humidity 99    
Minimum Humidity 27    
Precipitation  
Precipitation 0.00 in 0.08 in 1.20 in (1932)
Month to date precipitation 1.45  
Year to date precipitation 4.23  
Snow  
Snow 0.00 in 0.20 in 11.00 in (1932)
Month to date snowfall 3.8  
Since 1 July snowfall 34.8  
Snow Depth -    
Sea Level Pressure  
Sea Level Pressure 30.11 in    
Wind  
Wind Speed 11 mph (NNW)    
Max Wind Speed 24 mph    
Max Gust Speed 29 mph    
Visibility 8 miles    
Events      
T = Trace of Precipitation, MM = Missing Value Source: NWS Daily Summary

Daily Weather History Graph

Daily Weather History Graph

Search for Another Location

Airport or City:

Trip Planner

Search our weather history database for the weather conditions in past years. The results will help you decide how hot, cold, wet, or windy it might be!

Date:

Astronomy

Mar. 21, 2015 Rise Set
Actual Time 6:58 AM CDT 7:09 PM CDT
Civil Twilight 6:30 AM CDT 7:37 PM CDT
Nautical Twilight 5:57 AM CDT 8:09 PM CDT
Astronomical Twilight 5:24 AM CDT 8:43 PM CDT
Moon 7:42 AM CDT (3/21) 9:02 PM CDT (3/21)
Length of Visible Light 13h 06m
Length of Day
12h 11m
Waxing Crescent, 3% of the Moon is Illuminated
Mar 21
Waxing Crescent
Mar 27
First Quarter
Apr 4
Full
Apr 11
Last Quarter
Apr 18
New

Hourly Weather History & Observations

Time (CDT) Temp. Windchill Dew Point Humidity Pressure Visibility Wind Dir Wind Speed Gust Speed Precip Events Conditions
12:15 AM 37.8 °F 29.4 °F 36.1 °F 94% 30.01 in 5.0 mi SSW 13.8 mph - N/A   Clear
12:35 AM 36.7 °F 28.9 °F 35.6 °F 96% 30.01 in 5.0 mi SSW 11.5 mph - N/A   Clear
12:55 AM 36.0 °F 28.0 °F 35.1 °F 97% 30.01 in 4.0 mi SSW 11.5 mph - N/A   Clear
1:15 AM 36.0 °F 28.5 °F 35.1 °F 97% 30.00 in 4.0 mi SSW 10.4 mph - N/A   Clear
1:35 AM 35.8 °F 28.3 °F 34.9 °F 97% 30.00 in 4.0 mi SSW 10.4 mph - N/A   Clear
1:55 AM 35.8 °F 27.8 °F 34.9 °F 97% 29.99 in 4.0 mi SSW 11.5 mph - N/A   Clear
2:15 AM 35.2 °F 28.1 °F 34.7 °F 98% 29.99 in 3.0 mi SSW 9.2 mph - N/A   Clear
2:35 AM 35.2 °F 28.1 °F 34.7 °F 98% 29.99 in 3.0 mi SSW 9.2 mph - N/A   Clear
2:55 AM 34.7 °F 27.5 °F 34.0 °F 97% 29.99 in 3.0 mi SSW 9.2 mph - N/A   Clear
3:15 AM 34.0 °F 26.0 °F 33.4 °F 98% 29.98 in 3.0 mi SW 10.4 mph - N/A   Clear
3:35 AM 35.4 °F 26.8 °F 35.2 °F 99% 29.98 in 3.0 mi WSW 12.7 mph - N/A   Clear
3:55 AM 36.5 °F 29.7 °F 35.4 °F 96% 29.98 in 4.0 mi WSW 9.2 mph - N/A   Clear
4:15 AM 36.9 °F 29.6 °F 35.8 °F 96% 29.97 in 4.0 mi WSW 10.4 mph - N/A   Clear
4:35 AM 36.7 °F 28.9 °F 36.0 °F 97% 29.98 in 4.0 mi West 11.5 mph - N/A   Clear
4:55 AM 36.0 °F 28.5 °F 35.1 °F 97% 29.98 in 3.0 mi West 10.4 mph - N/A   Clear
5:15 AM 35.1 °F 31.0 °F 34.3 °F 97% 29.99 in 3.0 mi West 4.6 mph - N/A   Clear
5:35 AM 34.3 °F 27.7 °F 33.8 °F 98% 30.00 in 3.0 mi West 8.1 mph - N/A   Clear
5:55 AM 35.6 °F 29.2 °F 34.7 °F 97% 30.01 in 4.0 mi West 8.1 mph - N/A   Clear
6:15 AM 35.2 °F 31.2 °F 34.0 °F 95% 30.02 in 5.0 mi NW 4.6 mph - N/A   Clear
6:35 AM 37.2 °F 30.0 °F 33.8 °F 87% 30.03 in 7.0 mi NNW 10.4 mph - N/A   Clear
6:55 AM 38.5 °F 29.6 °F 34.0 °F 84% 30.04 in 10.0 mi North 16.1 mph 20.7 mph N/A   Clear
7:15 AM 37.4 °F 29.3 °F 34.0 °F 87% 30.05 in 10.0 mi North 12.7 mph - N/A   Clear
7:35 AM 37.9 °F 28.9 °F 34.2 °F 86% 30.06 in 10.0 mi North 16.1 mph - N/A   Clear
7:55 AM 38.7 °F 29.5 °F 35.2 °F 87% 30.08 in 10.0 mi North 17.3 mph - N/A   Clear
8:15 AM 39.6 °F 30.0 °F 36.0 °F 87% 30.08 in 10.0 mi North 19.6 mph 24.2 mph N/A   Clear
8:35 AM 40.6 °F 30.4 °F 36.5 °F 85% 30.09 in 10.0 mi North 24.2 mph 28.8 mph N/A   Clear
8:55 AM 41.7 °F 32.9 °F 36.5 °F 82% 30.11 in 10.0 mi North 19.6 mph 26.5 mph N/A   Clear
9:15 AM 42.3 °F 33.3 °F 36.7 °F 81% 30.12 in 10.0 mi North 20.7 mph - N/A   Clear
9:35 AM 43.3 °F 35.5 °F 36.7 °F 77% 30.14 in 10.0 mi North 17.3 mph 24.2 mph N/A   Clear
9:55 AM 44.2 °F 37.3 °F 36.7 °F 75% 30.14 in 10.0 mi North 15.0 mph - N/A   Clear
10:15 AM 44.2 °F 38.4 °F 36.0 °F 73% 30.16 in 10.0 mi North 11.5 mph - N/A   Scattered Clouds
10:35 AM 45.3 °F 39.3 °F 35.4 °F 68% 30.17 in 10.0 mi NNE 12.7 mph - N/A   Scattered Clouds
10:55 AM 46.0 °F 40.2 °F 34.3 °F 64% 30.18 in 10.0 mi North 12.7 mph - N/A   Scattered Clouds
11:15 AM 47.3 °F - 33.1 °F 58% 30.18 in 10.0 mi North 11.5 mph 17.3 mph N/A   Clear
11:35 AM 47.7 °F - 32.7 °F 56% 30.18 in 10.0 mi North 10.4 mph 16.1 mph N/A   Clear
11:55 AM 48.4 °F - 32.4 °F 54% 30.19 in 10.0 mi NNW 11.5 mph - N/A   Clear
12:15 PM 48.7 °F - 32.4 °F 53% 30.18 in 10.0 mi North 8.1 mph - N/A   Clear
12:35 PM 50.2 °F - 32.0 °F 50% 30.18 in 10.0 mi NNW 11.5 mph 17.3 mph N/A   Clear
12:55 PM 50.7 °F - 32.0 °F 49% 30.18 in 10.0 mi North 10.4 mph 16.1 mph N/A   Clear
1:15 PM 51.6 °F - 32.0 °F 47% 30.17 in 10.0 mi NNW 11.5 mph 17.3 mph N/A   Clear
1:35 PM 52.5 °F - 30.6 °F 43% 30.17 in 10.0 mi North 10.4 mph - N/A   Clear
1:55 PM 53.2 °F - 29.1 °F 40% 30.17 in 10.0 mi NW 12.7 mph 19.6 mph N/A   Clear
2:15 PM 53.1 °F - 28.8 °F 39% 30.16 in 10.0 mi NW 12.7 mph - N/A   Clear
2:35 PM 53.8 °F - 30.9 °F 42% 30.15 in 10.0 mi NNW 12.7 mph 18.4 mph N/A   Clear
2:55 PM 53.6 °F - 30.9 °F 42% 30.15 in 10.0 mi North 12.7 mph 17.3 mph N/A   Clear
3:15 PM 54.0 °F - 29.1 °F 39% 30.15 in 10.0 mi NNW 6.9 mph 11.5 mph N/A   Clear
3:35 PM 54.5 °F - 27.7 °F 36% 30.14 in 10.0 mi NNW 9.2 mph - N/A   Clear
3:55 PM 54.5 °F - 23.0 °F 29% 30.15 in 10.0 mi NNW 11.5 mph - N/A   Clear
4:15 PM 54.7 °F - 21.6 °F 28% 30.15 in 10.0 mi NW 12.7 mph 17.3 mph N/A   Clear
4:35 PM 54.5 °F - 21.2 °F 27% 30.15 in 10.0 mi NW 11.5 mph - N/A   Clear
4:55 PM 53.8 °F - 20.1 °F 27% 30.15 in 10.0 mi North 10.4 mph 13.8 mph N/A   Clear
5:15 PM 53.2 °F - 19.6 °F 27% 30.14 in 10.0 mi North 13.8 mph - N/A   Clear
5:35 PM 52.7 °F - 21.6 °F 30% 30.14 in 10.0 mi North 11.5 mph - N/A   Clear
5:55 PM 52.7 °F - 24.6 °F 34% 30.14 in 10.0 mi North 11.5 mph - N/A   Clear
6:15 PM 51.8 °F - 24.6 °F 35% 30.15 in 10.0 mi North 10.4 mph - N/A   Clear
6:35 PM 50.7 °F - 25.7 °F 38% 30.15 in 10.0 mi NNW 10.4 mph - N/A   Clear
6:55 PM 48.9 °F - 26.2 °F 41% 30.15 in 10.0 mi North 8.1 mph - N/A   Clear
7:15 PM 45.1 °F 40.3 °F 28.6 °F 52% 30.16 in 10.0 mi North 9.2 mph - N/A   Clear
7:35 PM 44.1 °F 40.8 °F 28.6 °F 55% 30.17 in 10.0 mi NNW 5.8 mph - N/A   Clear
7:55 PM 42.1 °F 39.2 °F 27.7 °F 57% 30.17 in 10.0 mi North 4.6 mph - N/A   Clear
8:15 PM 41.4 °F 37.6 °F 27.9 °F 59% 30.18 in 10.0 mi ENE 5.8 mph - N/A   Clear
8:35 PM 41.2 °F 34.5 °F 28.0 °F 60% 30.19 in 10.0 mi ESE 11.5 mph - N/A   Clear
8:55 PM 37.2 °F 30.6 °F 31.1 °F 79% 30.20 in 10.0 mi ESE 9.2 mph - N/A   Clear
9:15 PM 35.6 °F 28.6 °F 30.7 °F 82% 30.21 in 10.0 mi ESE 9.2 mph - N/A   Clear
9:35 PM 34.9 °F 27.7 °F 30.2 °F 83% 30.22 in 10.0 mi ESE 9.2 mph - N/A   Clear
9:55 PM 34.0 °F 27.2 °F 29.8 °F 85% 30.23 in 10.0 mi East 8.1 mph - N/A   Clear
10:15 PM 33.1 °F 26.9 °F 29.3 °F 86% 30.22 in 10.0 mi East 6.9 mph - N/A   Clear
10:35 PM 32.2 °F 25.0 °F 28.9 °F 88% 30.22 in 10.0 mi ESE 8.1 mph - N/A   Clear
10:55 PM 32.0 °F 24.2 °F 28.6 °F 87% 30.22 in 10.0 mi East 9.2 mph - N/A   Clear
11:15 PM 31.8 °F 24.6 °F 28.4 °F 87% 30.21 in 10.0 mi East 8.1 mph - N/A   Clear
11:35 PM 31.8 °F 24.6 °F 28.0 °F 86% 30.21 in 10.0 mi East 8.1 mph - N/A   Clear
11:55 PM 31.1 °F 23.7 °F 27.5 °F 87% 30.21 in 10.0 mi East 8.1 mph - N/A   Clear